Year,Month,Day,Hour,Minute,Value (Times are PST for temperature in C)
2010,04,08,00,00,5.80
2010,04,08,00,01,5.80
2010,04,08,00,02,5.80
2010,04,08,00,03,5.80
2010,04,08,00,04,5.80
2010,04,08,00,05,5.80
2010,04,08,00,06,5.80
2010,04,08,00,07,5.80
2010,04,08,00,08,5.80
2010,04,08,00,09,5.80
2010,04,08,00,10,5.80
2010,04,08,00,11,5.80
2010,04,08,00,12,5.80
2010,04,08,00,13,5.40
2010,04,08,00,14,4.60
2010,04,08,00,15,3.90
2010,04,08,00,16,3.40
2010,04,08,00,17,3.00
2010,04,08,00,18,2.80
2010,04,08,00,19,2.60
2010,04,08,00,20,2.40
2010,04,08,00,21,2.30
2010,04,08,00,22,2.20
2010,04,08,00,23,2.00
2010,04,08,00,24,2.00
2010,04,08,00,25,1.90
2010,04,08,00,26,1.80
2010,04,08,00,27,1.80
2010,04,08,00,28,1.70
2010,04,08,00,29,1.70
2010,04,08,00,30,1.70
2010,04,08,00,31,1.60
2010,04,08,00,32,1.60
2010,04,08,00,33,1.60
2010,04,08,00,34,1.50
2010,04,08,00,35,1.50
2010,04,08,00,36,1.40
2010,04,08,00,37,1.30
2010,04,08,00,38,1.30
2010,04,08,00,39,1.30
2010,04,08,00,40,1.30
2010,04,08,00,41,1.30
2010,04,08,00,42,1.20
2010,04,08,00,43,1.20
2010,04,08,00,44,1.20
2010,04,08,00,45,1.20
2010,04,08,00,46,1.20
2010,04,08,00,47,1.10
2010,04,08,00,48,1.10
2010,04,08,00,49,1.10
2010,04,08,00,50,1.10
2010,04,08,00,51,1.10
2010,04,08,00,52,1.10
2010,04,08,00,53,1.10
2010,04,08,00,54,1.10
2010,04,08,00,55,1.00
2010,04,08,00,56,1.00
2010,04,08,00,57,1.00
2010,04,08,00,58,1.00
2010,04,08,00,59,1.00
2010,04,08,01,00,1.00
2010,04,08,01,01,1.00
2010,04,08,01,02,1.00
2010,04,08,01,03,1.00
2010,04,08,01,04,1.00
2010,04,08,01,05,1.10
2010,04,08,01,06,1.10
2010,04,08,01,07,1.10
2010,04,08,01,08,1.10
2010,04,08,01,09,1.10
2010,04,08,01,10,1.10
2010,04,08,01,11,1.10
2010,04,08,01,12,1.10
2010,04,08,01,13,1.10
2010,04,08,01,14,1.20
2010,04,08,01,15,1.20
2010,04,08,01,16,1.20
2010,04,08,01,17,1.20
2010,04,08,01,18,1.20
2010,04,08,01,19,1.20
2010,04,08,01,20,1.20
2010,04,08,01,21,1.10
2010,04,08,01,22,1.10
2010,04,08,01,23,1.10
2010,04,08,01,24,1.10
2010,04,08,01,25,1.10
2010,04,08,01,26,1.10
2010,04,08,01,27,1.00
2010,04,08,01,28,1.00
2010,04,08,01,29,1.00
2010,04,08,01,30,1.00
2010,04,08,01,31,0.90
2010,04,08,01,32,0.90
2010,04,08,01,33,0.90
2010,04,08,01,34,0.90
2010,04,08,01,35,0.90
2010,04,08,01,36,0.90
2010,04,08,01,37,0.90
2010,04,08,01,38,0.90
2010,04,08,01,39,0.90
2010,04,08,01,40,0.90
2010,04,08,01,41,1.00
2010,04,08,01,42,1.00
2010,04,08,01,43,1.00
2010,04,08,01,44,1.10
2010,04,08,01,45,1.10
2010,04,08,01,46,1.10
2010,04,08,01,47,1.20
2010,04,08,01,48,1.20
2010,04,08,01,49,1.20
2010,04,08,01,50,1.30
2010,04,08,01,51,1.30
2010,04,08,01,52,1.30
2010,04,08,01,53,1.30
2010,04,08,01,54,1.30
2010,04,08,01,55,1.30
2010,04,08,01,56,1.30
2010,04,08,01,57,1.30
2010,04,08,01,58,1.30
2010,04,08,01,59,1.30
2010,04,08,02,00,1.30
2010,04,08,02,01,1.30
2010,04,08,02,02,1.30
2010,04,08,02,03,1.30
2010,04,08,02,04,1.30
2010,04,08,02,05,1.40
2010,04,08,02,06,1.40
2010,04,08,02,07,1.40
2010,04,08,02,08,1.40
2010,04,08,02,09,1.40
2010,04,08,02,10,1.40
2010,04,08,02,11,1.50
2010,04,08,02,12,1.50
2010,04,08,02,13,1.60
2010,04,08,02,14,1.60
2010,04,08,02,15,1.60
2010,04,08,02,16,1.70
2010,04,08,02,17,1.70
2010,04,08,02,18,1.80
2010,04,08,02,19,1.80
2010,04,08,02,20,1.80
2010,04,08,02,21,1.90
2010,04,08,02,22,1.90
2010,04,08,02,23,1.90
2010,04,08,02,24,1.90
2010,04,08,02,25,1.90
2010,04,08,02,26,1.90
2010,04,08,02,27,1.90
2010,04,08,02,28,2.00
2010,04,08,02,29,2.00
2010,04,08,02,30,2.10
2010,04,08,02,31,2.10
2010,04,08,02,32,2.20
2010,04,08,02,33,2.20
2010,04,08,02,34,2.30
2010,04,08,02,35,2.40
2010,04,08,02,36,2.40
2010,04,08,02,37,2.50
2010,04,08,02,38,2.50
2010,04,08,02,39,2.60
2010,04,08,02,40,2.60
2010,04,08,02,41,2.60
2010,04,08,02,42,2.60
2010,04,08,02,43,2.70
2010,04,08,02,44,2.70
2010,04,08,02,45,2.80
2010,04,08,02,46,2.90
2010,04,08,02,47,2.90
2010,04,08,02,48,2.90
2010,04,08,02,49,2.90
2010,04,08,02,50,2.90
2010,04,08,02,51,2.90
2010,04,08,02,52,2.90
2010,04,08,02,53,2.90
2010,04,08,02,54,2.90
2010,04,08,02,55,2.90
2010,04,08,02,56,2.90
2010,04,08,02,57,2.90
2010,04,08,02,58,2.90
2010,04,08,02,59,2.90
2010,04,08,03,00,2.90
2010,04,08,03,01,2.90
2010,04,08,03,02,2.90
2010,04,08,03,06,2.90
2010,04,08,03,07,2.90
2010,04,08,03,08,2.90
2010,04,08,03,09,2.90
2010,04,08,03,10,2.80
2010,04,08,03,11,2.80
2010,04,08,03,12,2.80
2010,04,08,03,13,2.80
2010,04,08,03,14,2.80
2010,04,08,03,15,2.80
2010,04,08,03,16,2.80
2010,04,08,03,17,2.80
2010,04,08,03,18,2.80
2010,04,08,03,19,2.80
2010,04,08,03,20,2.80
2010,04,08,03,21,2.80
2010,04,08,03,22,2.80
2010,04,08,03,23,2.80
2010,04,08,03,24,2.80
2010,04,08,03,25,2.80
2010,04,08,03,26,2.80
2010,04,08,03,27,2.80
2010,04,08,03,28,2.80
2010,04,08,03,29,2.80
2010,04,08,03,30,2.80
2010,04,08,03,31,2.80
2010,04,08,03,32,2.80
2010,04,08,03,33,2.90
2010,04,08,03,34,2.90
2010,04,08,03,35,2.90
2010,04,08,03,36,2.90
2010,04,08,03,37,2.90
2010,04,08,03,38,2.90
2010,04,08,03,39,2.90
2010,04,08,03,40,2.90
2010,04,08,03,41,2.90
2010,04,08,03,42,2.90
2010,04,08,03,43,2.90
2010,04,08,03,44,2.90
2010,04,08,03,45,2.90
2010,04,08,03,46,3.00
2010,04,08,03,47,3.00
2010,04,08,03,48,3.10
2010,04,08,03,49,3.10
2010,04,08,03,50,3.10
2010,04,08,03,51,3.00
2010,04,08,03,52,3.00
2010,04,08,03,53,3.00
2010,04,08,03,54,3.00
2010,04,08,03,55,2.90
2010,04,08,03,56,2.90
2010,04,08,03,57,2.80
2010,04,08,03,58,2.80
2010,04,08,03,59,2.80
2010,04,08,04,00,2.80
2010,04,08,04,01,2.70
2010,04,08,04,02,2.70
2010,04,08,04,03,2.70
2010,04,08,04,04,2.70
2010,04,08,04,05,2.70
2010,04,08,04,06,2.60
2010,04,08,04,07,2.60
2010,04,08,04,08,2.60
2010,04,08,04,09,2.60
2010,04,08,04,10,2.60
2010,04,08,04,11,2.60
2010,04,08,04,12,2.60
2010,04,08,04,13,2.50
2010,04,08,04,14,2.50
2010,04,08,04,15,2.50
2010,04,08,04,16,2.50
2010,04,08,04,17,2.50
2010,04,08,04,18,2.50
2010,04,08,04,19,2.50
2010,04,08,04,20,2.50
2010,04,08,04,21,2.50
2010,04,08,04,22,2.50
2010,04,08,04,23,2.50
2010,04,08,04,24,2.50
2010,04,08,04,25,2.50
2010,04,08,04,26,2.50
2010,04,08,04,27,2.50
2010,04,08,04,28,2.50
2010,04,08,04,29,2.50
2010,04,08,04,30,2.50
2010,04,08,04,31,2.60
2010,04,08,04,32,2.60
2010,04,08,04,33,2.60
2010,04,08,04,34,2.60
2010,04,08,04,35,2.70
2010,04,08,04,36,2.70
2010,04,08,04,37,2.70
2010,04,08,04,38,2.80
2010,04,08,04,39,2.80
2010,04,08,04,40,2.80
2010,04,08,04,41,2.80
2010,04,08,04,42,2.80
2010,04,08,04,43,2.80
2010,04,08,04,44,2.80
2010,04,08,04,45,2.80
2010,04,08,04,46,2.80
2010,04,08,04,47,2.80
2010,04,08,04,48,2.80
2010,04,08,04,49,2.80
2010,04,08,04,50,2.80
2010,04,08,04,51,2.80
2010,04,08,04,52,2.80
2010,04,08,04,53,2.80
2010,04,08,04,54,2.80
2010,04,08,04,55,2.80
2010,04,08,04,56,2.80
2010,04,08,04,57,2.80
2010,04,08,04,58,2.80
2010,04,08,04,59,2.80
2010,04,08,05,00,2.80
2010,04,08,05,01,2.80
2010,04,08,05,02,2.80
2010,04,08,05,03,2.80
2010,04,08,05,04,2.70
2010,04,08,05,05,2.70
2010,04,08,05,06,2.70
2010,04,08,05,07,2.70
2010,04,08,05,08,2.70
2010,04,08,05,09,2.70
2010,04,08,05,10,2.70
2010,04,08,05,11,2.70
2010,04,08,05,12,2.70
2010,04,08,05,13,2.70
2010,04,08,05,14,2.70
2010,04,08,05,15,2.70
2010,04,08,05,16,2.70
2010,04,08,05,17,2.60
2010,04,08,05,18,2.60
2010,04,08,05,19,2.60
2010,04,08,05,20,2.60
2010,04,08,05,21,2.60
2010,04,08,05,22,2.60
2010,04,08,05,23,2.60
2010,04,08,05,24,2.50
2010,04,08,05,25,2.50
2010,04,08,05,26,2.50
2010,04,08,05,27,2.50
2010,04,08,05,28,2.50
2010,04,08,05,29,2.40
2010,04,08,05,30,2.40
2010,04,08,05,31,2.40
2010,04,08,05,32,2.40
2010,04,08,05,33,2.40
2010,04,08,05,34,2.40
2010,04,08,05,35,2.40
2010,04,08,05,36,2.40
2010,04,08,05,37,2.30
2010,04,08,05,38,2.30
2010,04,08,05,39,2.30
2010,04,08,05,40,2.30
2010,04,08,05,41,2.40
2010,04,08,05,42,2.40
2010,04,08,05,43,2.40
2010,04,08,05,44,2.40
2010,04,08,05,45,2.50
2010,04,08,05,46,2.60
2010,04,08,05,47,2.60
2010,04,08,05,48,2.70
2010,04,08,05,49,2.80
2010,04,08,05,50,2.90
2010,04,08,05,51,3.00
2010,04,08,05,52,3.00
2010,04,08,05,53,3.00
2010,04,08,05,54,3.10
2010,04,08,05,55,3.10
2010,04,08,05,56,3.10
2010,04,08,05,57,3.10
2010,04,08,05,58,3.10
2010,04,08,05,59,3.20
2010,04,08,06,00,3.20
2010,04,08,06,01,3.20
2010,04,08,06,02,3.20
2010,04,08,06,03,3.20
2010,04,08,06,04,3.20
2010,04,08,06,05,3.20
2010,04,08,06,06,3.20
2010,04,08,06,07,3.30
2010,04,08,06,08,3.20
2010,04,08,06,09,3.30
2010,04,08,06,10,3.30
2010,04,08,06,11,3.30
2010,04,08,06,12,3.30
2010,04,08,06,13,3.30
2010,04,08,06,14,3.30
2010,04,08,06,15,3.30
2010,04,08,06,16,3.20
2010,04,08,06,17,3.20
2010,04,08,06,18,3.20
2010,04,08,06,19,3.20
2010,04,08,06,20,3.20
2010,04,08,06,21,3.20
2010,04,08,06,22,3.20
2010,04,08,06,23,3.20
2010,04,08,06,24,3.20
2010,04,08,06,25,3.20
2010,04,08,06,26,3.20
2010,04,08,06,27,3.20
2010,04,08,06,28,3.30
2010,04,08,06,29,3.30
2010,04,08,06,30,3.30
2010,04,08,06,31,3.30
2010,04,08,06,32,3.30
2010,04,08,06,33,3.40
2010,04,08,06,34,3.40
2010,04,08,06,35,3.40
2010,04,08,06,36,3.40
2010,04,08,06,37,3.40
2010,04,08,06,38,3.40
2010,04,08,06,39,3.40
2010,04,08,06,40,3.40
2010,04,08,06,41,3.40
2010,04,08,06,42,3.40
2010,04,08,06,43,3.30
2010,04,08,06,44,3.30
2010,04,08,06,45,3.30
2010,04,08,06,46,3.30
2010,04,08,06,47,3.30
2010,04,08,06,48,3.30
2010,04,08,06,49,3.30
2010,04,08,06,50,3.40
2010,04,08,06,51,3.40
2010,04,08,06,52,3.30
2010,04,08,06,53,3.30
2010,04,08,06,54,3.30
2010,04,08,06,55,3.30
2010,04,08,06,56,3.30
2010,04,08,06,57,3.40
2010,04,08,06,58,3.40
2010,04,08,06,59,3.40
2010,04,08,07,00,3.40
2010,04,08,07,01,3.40
2010,04,08,07,02,3.40
2010,04,08,07,03,3.40
2010,04,08,07,04,3.40
2010,04,08,07,05,3.40
2010,04,08,07,06,3.40
2010,04,08,07,07,3.40
2010,04,08,07,08,3.40
2010,04,08,07,09,3.40
2010,04,08,07,10,3.40
2010,04,08,07,11,3.40
2010,04,08,07,12,3.40
2010,04,08,07,13,3.30
2010,04,08,07,14,3.30
2010,04,08,07,15,3.30
2010,04,08,07,16,3.30
2010,04,08,07,17,3.30
2010,04,08,07,18,3.30
2010,04,08,07,19,3.20
2010,04,08,07,20,3.20
2010,04,08,07,21,3.20
2010,04,08,07,22,3.20
2010,04,08,07,23,3.10
2010,04,08,07,24,3.10
2010,04,08,07,25,3.00
2010,04,08,07,26,3.00
2010,04,08,07,27,3.00
2010,04,08,07,28,2.90
2010,04,08,07,29,2.90
2010,04,08,07,30,2.90
2010,04,08,07,31,2.90
2010,04,08,07,32,2.90
2010,04,08,07,33,2.90
2010,04,08,07,34,2.90
2010,04,08,07,35,2.90
2010,04,08,07,36,2.90
2010,04,08,07,37,2.90
2010,04,08,07,38,2.90
2010,04,08,07,39,2.90
2010,04,08,07,40,3.00
2010,04,08,07,41,3.00
2010,04,08,07,42,3.10
2010,04,08,07,43,3.20
2010,04,08,07,44,3.20
2010,04,08,07,45,3.30
2010,04,08,07,46,3.30
2010,04,08,07,47,3.40
2010,04,08,07,48,3.50
2010,04,08,07,49,3.60
2010,04,08,07,50,3.70
2010,04,08,07,51,3.70
2010,04,08,07,52,3.80
2010,04,08,07,53,3.80
2010,04,08,07,54,3.80
2010,04,08,07,55,3.80
2010,04,08,07,56,3.80
2010,04,08,07,57,3.80
2010,04,08,07,58,3.90
2010,04,08,07,59,3.90
2010,04,08,08,00,3.90
2010,04,08,08,01,4.00
2010,04,08,08,02,4.00
2010,04,08,08,03,4.00
2010,04,08,08,04,4.00
2010,04,08,08,05,4.10
2010,04,08,08,06,4.10
2010,04,08,08,07,4.10
2010,04,08,08,08,4.10
2010,04,08,08,09,4.10
2010,04,08,08,10,4.10
2010,04,08,08,11,4.10
2010,04,08,08,12,4.10
2010,04,08,08,13,4.10
2010,04,08,08,14,4.20
2010,04,08,08,15,4.20
2010,04,08,08,16,4.20
2010,04,08,08,17,4.20
2010,04,08,08,18,4.20
2010,04,08,08,19,4.20
2010,04,08,08,20,4.20
2010,04,08,08,21,4.20
2010,04,08,08,22,4.20
2010,04,08,08,23,4.20
2010,04,08,08,24,4.20
2010,04,08,08,25,4.20
2010,04,08,08,26,4.30
2010,04,08,08,27,4.30
2010,04,08,08,28,4.40
2010,04,08,08,29,4.50
2010,04,08,08,30,4.50
2010,04,08,08,31,4.50
2010,04,08,08,32,4.60
2010,04,08,08,33,4.60
2010,04,08,08,34,4.60
2010,04,08,08,35,4.60
2010,04,08,08,36,4.60
2010,04,08,08,37,4.70
2010,04,08,08,38,4.70
2010,04,08,08,39,4.70
2010,04,08,08,40,4.70
2010,04,08,08,41,4.70
2010,04,08,08,42,4.70
2010,04,08,08,43,4.70
2010,04,08,08,44,4.80
2010,04,08,08,45,4.80
2010,04,08,08,46,4.80
2010,04,08,08,47,4.80
2010,04,08,08,48,4.80
2010,04,08,08,49,4.90
2010,04,08,08,50,4.90
2010,04,08,08,51,4.90
2010,04,08,08,52,4.90
2010,04,08,08,53,4.90
2010,04,08,08,54,4.90
2010,04,08,08,55,4.90
2010,04,08,08,56,5.00
2010,04,08,08,57,5.00
2010,04,08,08,58,5.00
2010,04,08,08,59,5.00
2010,04,08,09,00,5.00
2010,04,08,09,01,5.00
2010,04,08,09,02,5.10
2010,04,08,09,03,5.10
2010,04,08,09,04,5.10
2010,04,08,09,05,5.10
2010,04,08,09,06,5.10
2010,04,08,09,07,5.10
2010,04,08,09,08,5.10
2010,04,08,09,09,5.10
2010,04,08,09,10,5.10
2010,04,08,09,11,5.10
2010,04,08,09,12,5.10
2010,04,08,09,13,5.10
2010,04,08,09,14,5.10
2010,04,08,09,15,5.20
2010,04,08,09,16,5.20
2010,04,08,09,17,5.20
2010,04,08,09,18,5.20
2010,04,08,09,19,5.20
2010,04,08,09,20,5.30
2010,04,08,09,21,5.30
2010,04,08,09,22,5.30
2010,04,08,09,23,5.30
2010,04,08,09,24,5.30
2010,04,08,09,25,5.30
2010,04,08,09,26,5.30
2010,04,08,09,27,5.30
2010,04,08,09,28,5.30
2010,04,08,09,29,5.30
2010,04,08,09,30,5.30
2010,04,08,09,31,5.30
2010,04,08,09,32,5.30
2010,04,08,09,33,5.30
2010,04,08,09,34,5.30
2010,04,08,09,35,5.30
2010,04,08,09,36,5.30
2010,04,08,09,37,5.30
2010,04,08,09,38,5.40
2010,04,08,09,39,5.40
2010,04,08,09,40,5.40
2010,04,08,09,41,5.40
2010,04,08,09,42,5.50
2010,04,08,09,43,5.60
2010,04,08,09,44,5.60
2010,04,08,09,45,5.60
2010,04,08,09,46,5.60
2010,04,08,09,47,5.60
2010,04,08,09,48,5.60
2010,04,08,09,49,5.60
2010,04,08,09,50,5.60
2010,04,08,09,51,5.60
2010,04,08,09,52,5.70
2010,04,08,09,53,5.70
2010,04,08,09,54,5.70
2010,04,08,09,55,5.70
2010,04,08,09,56,5.70
2010,04,08,09,57,5.80
2010,04,08,09,58,5.80
2010,04,08,09,59,5.80
2010,04,08,10,00,5.90
2010,04,08,10,01,5.90
2010,04,08,10,02,6.00
2010,04,08,10,03,6.00
2010,04,08,10,04,6.10
2010,04,08,10,05,6.10
2010,04,08,10,06,6.20
2010,04,08,10,07,6.20
2010,04,08,10,08,6.20
2010,04,08,10,09,6.20
2010,04,08,10,10,6.10
2010,04,08,10,11,6.10
2010,04,08,10,12,6.00
2010,04,08,10,13,6.00
2010,04,08,10,14,6.00
2010,04,08,10,15,6.10
2010,04,08,10,16,6.10
2010,04,08,10,17,6.10
2010,04,08,10,18,6.20
2010,04,08,10,19,6.20
2010,04,08,10,20,6.20
2010,04,08,10,21,6.20
2010,04,08,10,22,6.20
2010,04,08,10,23,6.30
2010,04,08,10,24,6.30
2010,04,08,10,25,6.30
2010,04,08,10,26,6.40
2010,04,08,10,27,6.40
2010,04,08,10,28,6.40
2010,04,08,10,29,6.40
2010,04,08,10,30,6.40
2010,04,08,10,31,6.40
2010,04,08,10,32,6.40
2010,04,08,10,33,6.40
2010,04,08,10,34,6.50
2010,04,08,10,35,6.50
2010,04,08,10,36,6.50
2010,04,08,10,37,6.60
2010,04,08,10,38,6.60
2010,04,08,10,39,6.70
2010,04,08,10,40,6.70
2010,04,08,10,41,6.70
2010,04,08,10,42,6.70
2010,04,08,10,43,6.70
2010,04,08,10,44,6.60
2010,04,08,10,45,6.50
2010,04,08,10,46,6.50
2010,04,08,10,47,6.40
2010,04,08,10,48,6.40
2010,04,08,10,49,6.40
2010,04,08,10,50,6.50
2010,04,08,10,51,6.50
2010,04,08,10,52,6.60
2010,04,08,10,53,6.60
2010,04,08,10,54,6.60
2010,04,08,10,55,6.60
2010,04,08,10,56,6.60
2010,04,08,10,57,6.70
2010,04,08,10,58,6.70
2010,04,08,10,59,6.70
2010,04,08,11,00,6.80
2010,04,08,11,01,6.80
2010,04,08,11,02,6.80
2010,04,08,11,03,6.90
2010,04,08,11,04,6.90
2010,04,08,11,05,6.90
2010,04,08,11,06,6.90
2010,04,08,11,07,7.00
2010,04,08,11,08,7.00
2010,04,08,11,09,7.00
2010,04,08,11,10,6.90
2010,04,08,11,11,6.90
2010,04,08,11,12,7.00
2010,04,08,11,13,7.00
2010,04,08,11,14,7.00
2010,04,08,11,15,7.00
2010,04,08,11,16,7.10
2010,04,08,11,17,7.10
2010,04,08,11,18,7.00
2010,04,08,11,19,7.00
2010,04,08,11,20,7.00
2010,04,08,11,21,7.10
2010,04,08,11,22,7.10
2010,04,08,11,23,7.20
2010,04,08,11,24,7.20
2010,04,08,11,25,7.20
2010,04,08,11,26,7.30
2010,04,08,11,27,7.20
2010,04,08,11,28,7.20
2010,04,08,11,29,7.20
2010,04,08,11,30,7.20
2010,04,08,11,31,7.20
2010,04,08,11,32,7.20
2010,04,08,11,33,7.20
2010,04,08,11,34,7.30
2010,04,08,11,35,7.30
2010,04,08,11,36,7.30
2010,04,08,11,37,7.30
2010,04,08,11,38,7.40
2010,04,08,11,39,7.40
2010,04,08,11,40,7.40
2010,04,08,11,41,7.40
2010,04,08,11,42,7.40
2010,04,08,11,43,7.40
2010,04,08,11,44,7.40
2010,04,08,11,45,7.40
2010,04,08,11,46,7.40
2010,04,08,11,47,7.40
2010,04,08,11,48,7.40
2010,04,08,11,49,7.40
2010,04,08,11,50,7.40
2010,04,08,11,51,7.40
2010,04,08,11,52,7.40
2010,04,08,11,53,7.40
2010,04,08,11,54,7.40
2010,04,08,11,55,7.40
2010,04,08,11,56,7.50
2010,04,08,11,57,7.60
2010,04,08,11,58,7.60
2010,04,08,11,59,7.60
2010,04,08,12,00,7.60
2010,04,08,12,01,7.70
2010,04,08,12,02,7.60
2010,04,08,12,03,7.60
2010,04,08,12,04,7.60
2010,04,08,12,05,7.60
2010,04,08,12,06,7.70
2010,04,08,12,07,7.70
2010,04,08,12,08,7.80
2010,04,08,12,09,7.80
2010,04,08,12,10,7.80
2010,04,08,12,11,7.80
2010,04,08,12,12,7.80
2010,04,08,12,13,7.70
2010,04,08,12,14,7.60
2010,04,08,12,15,7.60
2010,04,08,12,16,7.60
2010,04,08,12,17,7.50
2010,04,08,12,18,7.50
2010,04,08,12,19,7.50
2010,04,08,12,20,7.50
2010,04,08,12,21,7.60
2010,04,08,12,22,7.70
2010,04,08,12,23,7.80
2010,04,08,12,24,7.90
2010,04,08,12,25,8.00
2010,04,08,12,26,8.00
2010,04,08,12,27,7.80
2010,04,08,12,28,7.80
2010,04,08,12,29,7.80
2010,04,08,12,30,7.90
2010,04,08,12,31,7.90
2010,04,08,12,32,8.00
2010,04,08,12,33,8.10
2010,04,08,12,34,8.20
2010,04,08,12,35,8.30
2010,04,08,12,36,8.20
2010,04,08,12,37,8.10
2010,04,08,12,38,8.00
2010,04,08,12,39,8.00
2010,04,08,12,40,8.00
2010,04,08,12,41,8.10
2010,04,08,12,42,8.10
2010,04,08,12,43,8.20
2010,04,08,12,44,8.30
2010,04,08,12,45,8.30
2010,04,08,12,46,8.30
2010,04,08,12,47,8.30
2010,04,08,12,48,8.20
2010,04,08,12,49,8.30
2010,04,08,12,50,8.30
2010,04,08,12,51,8.30
2010,04,08,12,52,8.30
2010,04,08,12,53,8.20
2010,04,08,12,54,8.20
2010,04,08,12,55,8.10
2010,04,08,12,56,8.00
2010,04,08,12,57,8.00
2010,04,08,12,58,7.90
2010,04,08,12,59,7.90
2010,04,08,13,00,7.80
2010,04,08,13,01,7.80
2010,04,08,13,02,7.80
2010,04,08,13,03,7.80
2010,04,08,13,04,7.80
2010,04,08,13,05,7.90
2010,04,08,13,06,7.90
2010,04,08,13,07,8.10
2010,04,08,13,08,8.20
2010,04,08,13,09,8.20
2010,04,08,13,10,8.20
2010,04,08,13,11,8.20
2010,04,08,13,12,8.20
2010,04,08,13,13,8.30
2010,04,08,13,14,8.30
2010,04,08,13,15,8.40
2010,04,08,13,16,8.40
2010,04,08,13,17,8.50
2010,04,08,13,18,8.50
2010,04,08,13,19,8.40
2010,04,08,13,20,8.40
2010,04,08,13,21,8.40
2010,04,08,13,22,8.40
2010,04,08,13,23,8.30
2010,04,08,13,24,8.40
2010,04,08,13,25,8.30
2010,04,08,13,26,8.30
2010,04,08,13,27,8.30
2010,04,08,13,28,8.30
2010,04,08,13,29,8.30
2010,04,08,13,30,8.20
2010,04,08,13,31,8.20
2010,04,08,13,32,8.40
2010,04,08,13,33,8.40
2010,04,08,13,34,8.40
2010,04,08,13,35,8.40
2010,04,08,13,36,8.30
2010,04,08,13,37,8.30
2010,04,08,13,38,8.30
2010,04,08,13,39,8.30
2010,04,08,13,40,8.40
2010,04,08,13,41,8.50
2010,04,08,13,42,8.50
2010,04,08,13,43,8.50
2010,04,08,13,44,8.60
2010,04,08,13,45,8.60
2010,04,08,13,46,8.60
2010,04,08,13,47,8.70
2010,04,08,13,48,8.70
2010,04,08,13,49,8.80
2010,04,08,13,50,8.90
2010,04,08,13,51,8.80
2010,04,08,13,52,8.80
2010,04,08,13,53,8.80
2010,04,08,13,54,8.90
2010,04,08,13,55,9.00
2010,04,08,13,56,9.00
2010,04,08,13,57,9.00
2010,04,08,13,58,9.00
2010,04,08,13,59,9.10
2010,04,08,14,00,9.00
2010,04,08,14,01,9.00
2010,04,08,14,02,8.90
2010,04,08,14,03,8.90
2010,04,08,14,04,8.80
2010,04,08,14,05,8.80
2010,04,08,14,06,8.80
2010,04,08,14,07,8.80
2010,04,08,14,08,8.90
2010,04,08,14,09,9.00
2010,04,08,14,10,9.10
2010,04,08,14,11,9.30
2010,04,08,14,12,9.50
2010,04,08,14,13,9.60
2010,04,08,14,14,9.50
2010,04,08,14,15,9.40
2010,04,08,14,16,9.40
2010,04,08,14,17,9.30
2010,04,08,14,18,9.30
2010,04,08,14,19,9.30
2010,04,08,14,20,9.30
2010,04,08,14,21,9.20
2010,04,08,14,22,9.20
2010,04,08,14,23,9.20
2010,04,08,14,24,9.10
2010,04,08,14,25,9.20
2010,04,08,14,26,9.20
2010,04,08,14,27,9.20
2010,04,08,14,28,9.10
2010,04,08,14,29,9.00
2010,04,08,14,30,9.00
2010,04,08,14,31,8.90
2010,04,08,14,32,8.90
2010,04,08,14,33,8.90
2010,04,08,14,34,9.00
2010,04,08,14,35,9.10
2010,04,08,14,36,9.20
2010,04,08,14,37,9.20
2010,04,08,14,38,9.20
2010,04,08,14,39,9.20
2010,04,08,14,40,9.20
2010,04,08,14,41,9.20
2010,04,08,14,42,9.20
2010,04,08,14,43,9.30
2010,04,08,14,44,9.30
2010,04,08,14,45,9.40
2010,04,08,14,46,9.40
2010,04,08,14,47,9.40
2010,04,08,14,48,9.30
2010,04,08,14,49,9.30
2010,04,08,14,50,9.20
2010,04,08,14,51,9.30
2010,04,08,14,52,9.30
2010,04,08,14,53,9.20
2010,04,08,14,54,9.20
2010,04,08,14,55,9.20
2010,04,08,14,56,9.20
2010,04,08,14,57,9.30
2010,04,08,14,58,9.30
2010,04,08,14,59,9.30
2010,04,08,15,00,9.40
2010,04,08,15,01,9.50
2010,04,08,15,02,9.60
2010,04,08,15,03,9.60
2010,04,08,15,04,9.70
2010,04,08,15,05,9.90
2010,04,08,15,06,9.90
2010,04,08,15,07,9.90
2010,04,08,15,08,10.00
2010,04,08,15,09,10.00
2010,04,08,15,10,10.00
2010,04,08,15,11,9.90
2010,04,08,15,12,9.90
2010,04,08,15,13,9.90
2010,04,08,15,14,9.70
2010,04,08,15,15,9.60
2010,04,08,15,16,9.40
2010,04,08,15,17,9.30
2010,04,08,15,18,9.20
2010,04,08,15,19,9.00
2010,04,08,15,20,9.00
2010,04,08,15,21,9.10
2010,04,08,15,22,9.10
2010,04,08,15,23,9.20
2010,04,08,15,24,9.20
2010,04,08,15,25,9.20
2010,04,08,15,26,9.30
2010,04,08,15,27,9.30
2010,04,08,15,28,9.30
2010,04,08,15,29,9.30
2010,04,08,15,30,9.30
2010,04,08,15,31,9.10
2010,04,08,15,32,9.00
2010,04,08,15,33,8.90
2010,04,08,15,34,8.90
2010,04,08,15,35,8.80
2010,04,08,15,36,8.80
2010,04,08,15,37,8.70
2010,04,08,15,38,8.60
2010,04,08,15,39,8.50
2010,04,08,15,40,8.50
2010,04,08,15,41,8.40
2010,04,08,15,42,8.30
2010,04,08,15,43,8.30
2010,04,08,15,44,8.30
2010,04,08,15,45,8.30
2010,04,08,15,46,8.20
2010,04,08,15,47,8.20
2010,04,08,15,48,8.20
2010,04,08,15,49,8.20
2010,04,08,15,50,8.20
2010,04,08,15,51,8.20
2010,04,08,15,52,8.20
2010,04,08,15,53,8.20
2010,04,08,15,54,8.20
2010,04,08,15,55,8.10
2010,04,08,15,56,8.10
2010,04,08,15,57,8.10
2010,04,08,15,58,8.10
2010,04,08,15,59,8.10
2010,04,08,16,00,8.20
2010,04,08,16,01,8.20
2010,04,08,16,02,8.20
2010,04,08,16,03,8.20
2010,04,08,16,04,8.20
2010,04,08,16,05,8.20
2010,04,08,16,06,8.10
2010,04,08,16,07,8.10
2010,04,08,16,08,8.10
2010,04,08,16,09,8.20
2010,04,08,16,10,8.10
2010,04,08,16,11,8.10
2010,04,08,16,12,8.10
2010,04,08,16,13,8.10
2010,04,08,16,14,8.10
2010,04,08,16,15,8.10
2010,04,08,16,16,8.20
2010,04,08,16,17,8.20
2010,04,08,16,18,8.30
2010,04,08,16,19,8.40
2010,04,08,16,20,8.40
2010,04,08,16,21,8.50
2010,04,08,16,22,8.60
2010,04,08,16,23,8.60
2010,04,08,16,24,8.60
2010,04,08,16,25,8.80
2010,04,08,16,26,8.90
2010,04,08,16,27,9.10
2010,04,08,16,28,9.10
2010,04,08,16,29,9.10
2010,04,08,16,30,9.10
2010,04,08,16,31,9.10
2010,04,08,16,32,9.10
2010,04,08,16,33,9.00
2010,04,08,16,34,8.90
2010,04,08,16,35,8.90
2010,04,08,16,36,8.90
2010,04,08,16,37,8.90
2010,04,08,16,38,8.90
2010,04,08,16,39,8.90
2010,04,08,16,40,8.90
2010,04,08,16,41,8.80
2010,04,08,16,42,8.80
2010,04,08,16,43,8.80
2010,04,08,16,44,8.70
2010,04,08,16,45,8.70
2010,04,08,16,46,8.70
2010,04,08,16,47,8.70
2010,04,08,16,48,8.70
2010,04,08,16,49,8.70
2010,04,08,16,50,8.60
2010,04,08,16,51,8.50
2010,04,08,16,52,8.30
2010,04,08,16,53,8.10
2010,04,08,16,54,8.00
2010,04,08,16,55,7.90
2010,04,08,16,56,7.90
2010,04,08,16,57,7.90
2010,04,08,16,58,8.00
2010,04,08,16,59,8.00
2010,04,08,17,00,8.10
2010,04,08,17,01,8.20
2010,04,08,17,02,8.20
2010,04,08,17,03,8.20
2010,04,08,17,04,8.20
2010,04,08,17,05,8.10
2010,04,08,17,06,8.10
2010,04,08,17,07,8.00
2010,04,08,17,08,8.00
2010,04,08,17,09,7.90
2010,04,08,17,10,7.80
2010,04,08,17,11,7.80
2010,04,08,17,12,7.80
2010,04,08,17,13,7.70
2010,04,08,17,14,7.70
2010,04,08,17,15,7.60
2010,04,08,17,16,7.60
2010,04,08,17,17,7.50
2010,04,08,17,18,7.40
2010,04,08,17,19,7.30
2010,04,08,17,20,7.20
2010,04,08,17,21,7.20
2010,04,08,17,22,7.20
2010,04,08,17,23,7.20
2010,04,08,17,24,7.20
2010,04,08,17,25,7.10
2010,04,08,17,26,7.00
2010,04,08,17,27,7.00
2010,04,08,17,28,7.00
2010,04,08,17,29,7.00
2010,04,08,17,30,7.10
2010,04,08,17,31,7.20
2010,04,08,17,32,7.30
2010,04,08,17,33,7.40
2010,04,08,17,34,7.50
2010,04,08,17,35,7.60
2010,04,08,17,36,7.50
2010,04,08,17,37,7.50
2010,04,08,17,38,7.50
2010,04,08,17,39,7.60
2010,04,08,17,40,7.60
2010,04,08,17,41,7.70
2010,04,08,17,42,7.70
2010,04,08,17,43,7.70
2010,04,08,17,44,7.50
2010,04,08,17,45,7.50
2010,04,08,17,46,7.40
2010,04,08,17,47,7.40
2010,04,08,17,48,7.40
2010,04,08,17,49,7.40
2010,04,08,17,50,7.40
2010,04,08,17,51,7.40
2010,04,08,17,52,7.40
2010,04,08,17,53,7.30
2010,04,08,17,54,7.30
2010,04,08,17,55,7.30
2010,04,08,17,56,7.20
2010,04,08,17,57,7.20
2010,04,08,17,58,7.20
2010,04,08,17,59,7.20
2010,04,08,18,00,7.10
2010,04,08,18,01,7.10
2010,04,08,18,02,7.00
2010,04,08,18,03,6.90
2010,04,08,18,04,6.80
2010,04,08,18,05,6.80
2010,04,08,18,06,6.80
2010,04,08,18,07,6.70
2010,04,08,18,08,6.70
2010,04,08,18,09,6.60